Regional Weather Roundup
Issued by NWS

Home | Current Version | Previous Version | Text Only | Print | Product List | Glossary Off
Versions: 1 2 3 4 5 6 7 8 9 10 11 12 13 14 15 16 17 18 19 20 21 22 23 24 25 26 27 28 29 30 31 32 33 34 35 36 37 38 39 40 41 42 43 44 45 46 47 48 49 50

719
ASUS45 KABQ 021601
RWRNM
NEW MEXICO REGIONAL WEATHER ROUNDUP
NATIONAL WEATHER SERVICE ALBUQUERQUE NM
1000 AM MDT MON MAY 02 2016

NOTE: "FAIR" MEANS FEW OR NO CLOUDS BELOW 12,000 FEET AGL WITH NO
       SIGNIFICANT WEATHER OR OBSTRUCTIONS TO VISION.

      THIS PRODUCT IS RELEASED AS TWO VERSIONS.  ONE VERSION NEAR
      THE TOP OF THE HOUR CONTAINING PRELIMINARY DATA FROM ALBUQUERQUE
      AND OTHER STATIONS.  A FINAL VERSION WITH ADDITIONAL DATA IS
      ISSUED ABOUT 10 MINUTES AFTER THE HOUR.

NMZ501-503-504-510>518-021700-
NORTHWEST PLATEAU/NORTHCENTRAL MOUNTAINS

CITY           SKY/WX    TMP DP  RH WIND       PRES   REMARKS
FARMINGTON     FAIR      46  35  65 E9        30.28S
SANTA FE       PTSUNNY   42  30  62 VRB3      30.30S
TAOS           CLOUDY    37  25  60 CALM      30.32S

$$
NMZ402-403-502-505>509-021700-
WESTCENTRAL MOUNTAINS/SOUTHWEST MOUNTAINS

CITY           SKY/WX    TMP DP  RH WIND       PRES   REMARKS
GALLUP         FAIR      45  36  70 NE9       30.26F
GRANTS         CLOUDY    40  35  81 SE12      30.31R WCI  33
SILVER CITY      N/A     50  32  50 SE13G18   30.28S

$$
NMZ407-409-411-412-021700-
SOUTHERN DESERTS

CITY           SKY/WX    TMP DP  RH WIND       PRES   REMARKS
LORDSBURG      FAIR      55  32  41 SE18G28   30.23S
DEMING         FAIR      54  33  45 E15       30.26S
ALAMOGORDO     FAIR      52  32  46 S9        30.29S
T OR C         FAIR      51  32  48 N13       30.27F

$$
NMZ519>523-021700-
CENTRAL VALLEYS/CENTRAL HIGHLANDS

CITY           SKY/WX    TMP DP  RH WIND       PRES   REMARKS
ALBUQUERQUE    PTSUNNY   47  32  56 N5        30.31S
MORIARTY ARPT  FAIR      42  29  60 S9        30.33S
CLINES CORNERS PTSUNNY   36  29  75 CALM      30.29R
BELEN          PTSUNNY   44  35  70 CALM      30.32S
SOCORRO        NOT AVBL

$$
NMZ524>526-539-540-021700-
SOUTHCENTRAL MOUNTAINS

CITY           SKY/WX    TMP DP  RH WIND       PRES   REMARKS
RUIDOSO        NOT AVBL

$$
NMZ527>531-021700-
NORTHEAST HIGHLANDS/NORTHEAST PLAINS

CITY           SKY/WX    TMP DP  RH WIND       PRES   REMARKS
LAS VEGAS      PTSUNNY   35  31  85 SW10      30.29S WCI  27
RATON          FAIR      39  26  59 CALM      30.26F
CLAYTON        FAIR      47  31  53 NW10      30.27S

$$
NMZ532>537-021700-
EASTCENTRAL PLAINS

CITY           SKY/WX    TMP DP  RH WIND       PRES   REMARKS
TUCUMCARI      FAIR      50  32  50 W6        30.29F
CANNON AFB     FAIR      49  34  57 VRB7      30.29F
CLOVIS AIRPORT FAIR      48  34  57 N9        30.31S

$$
NMZ028-029-538-021700-
SOUTHEAST PLAINS

CITY           SKY/WX    TMP DP  RH WIND       PRES   REMARKS
ROSWELL        PTSUNNY   52  34  50 NE10      30.32S
ARTESIA        FAIR      50  34  53 NE9G20    30.33S
CARLSBAD       CLOUDY    51  35  54 N10       30.32R
HOBBS          PTSUNNY   52  36  54 N12       30.31S


$$




USA.gov is the U.S. government's official web portal to all federal, state and local government web resources and services.